Wahpeton, MN

10:34 AM CDT on March 28, 2017 (GMT -0500)
Stern

Weather History for KBWP - October, 2011

Change the Weather History Date:

Monday, October 10, 2011

  Actual Average (KFFM) Record (KFFM)
Temperature  
Mean Temperature 58 °F -  
Max Temperature 64 °F 56 °F 84 °F (1955)
Min Temperature 53 °F 36 °F 20 °F (1970)
Degree Days  
Heating Degree Days 6    
Growing Degree Days 8 (Base 50)    
Moisture  
Dew Point 51 °F    
Average Humidity 76    
Maximum Humidity 94    
Minimum Humidity 59    
Precipitation  
Precipitation 0.12 in - - ()
Sea Level Pressure  
Sea Level Pressure 29.88 in    
Wind  
Wind Speed 13 mph (SSE)    
Max Wind Speed 29 mph    
Max Gust Speed 33 mph    
Visibility 10 miles    
Events      
Averages and records for this station are not official NWS values.
T = Trace of Precipitation, MM = Missing Value Source: NWS Daily Summary

Daily Weather History Graph

Daily Weather History Graph

Search for Another Location

Airport or City:

Trip Planner

Search our weather history database for the weather conditions in past years. The results will help you decide how hot, cold, wet, or windy it might be!

Date:

Astronomy

Oct. 10, 2011 Rise Set
Actual Time 7:36 AM CDT 6:49 PM CDT
Civil Twilight 7:06 AM CDT 7:19 PM CDT
Nautical Twilight 6:31 AM CDT 7:54 PM CDT
Astronomical Twilight 5:56 AM CDT 8:29 PM CDT
Moon 5:53 PM CDT (10/10) 6:17 AM CDT (10/10)
Length of Visible Light 12h 13m
Length of Day
11h 13m
Waxing Gibbous, 98% of the Moon is Illuminated
Oct 10
Waxing Gibbous
Oct 11
Full
Oct 19
Last Quarter
Oct 26
New
Nov 2
First Quarter

Hourly Weather History & Observations

Time (CDT) Temp. Dew Point Humidity Pressure Visibility Wind Dir Wind Speed Gust Speed Precip Events Conditions
12:15 AM 60.8 °F 50.0 °F 68% 29.97 in 10.0 mi SE 11.5 mph - N/A   Clear
12:35 AM 60.8 °F 50.0 °F 68% 29.97 in 10.0 mi SSE 13.8 mph - N/A   Clear
12:55 AM 60.8 °F 50.0 °F 68% 29.96 in 10.0 mi SSE 12.7 mph - N/A   Scattered Clouds
1:15 AM 60.8 °F 50.0 °F 68% 29.96 in 10.0 mi SSE 13.8 mph - N/A   Scattered Clouds
1:35 AM 60.8 °F 50.0 °F 68% 29.96 in 10.0 mi SSE 13.8 mph - N/A   Clear
1:55 AM 60.8 °F 50.0 °F 68% 29.95 in 10.0 mi SSE 12.7 mph - N/A   Clear
2:15 AM 60.8 °F 50.0 °F 68% 29.95 in 10.0 mi SSE 15.0 mph - N/A   Clear
2:35 AM 59.0 °F 50.0 °F 72% 29.95 in 10.0 mi SSE 12.7 mph - N/A   Clear
2:55 AM 59.0 °F 50.0 °F 72% 29.95 in 10.0 mi SSE 11.5 mph - N/A   Clear
3:15 AM 59.0 °F 50.0 °F 72% 29.94 in 10.0 mi SSE 10.4 mph - N/A   Clear
3:35 AM 59.0 °F 50.0 °F 72% 29.94 in 10.0 mi SSE 10.4 mph - N/A   Clear
4:15 AM 57.2 °F 50.0 °F 77% 29.94 in 10.0 mi SSE 13.8 mph - N/A   Clear
4:35 AM 57.2 °F 50.0 °F 77% 29.93 in 10.0 mi SSE 11.5 mph - N/A   Clear
4:55 AM 57.2 °F 50.0 °F 77% 29.94 in 10.0 mi SSE 12.7 mph - N/A   Clear
5:15 AM 57.2 °F 50.0 °F 77% 29.93 in 10.0 mi SSE 12.7 mph 17.3 mph N/A   Clear
5:35 AM 55.4 °F 50.0 °F 82% 29.92 in 10.0 mi SE 11.5 mph - N/A   Clear
6:15 AM 55.4 °F 50.0 °F 82% 29.91 in 10.0 mi SSE 13.8 mph 19.6 mph N/A   Clear
6:35 AM 55.4 °F 50.0 °F 82% 29.91 in 10.0 mi SSE 11.5 mph 17.3 mph N/A   Clear
6:55 AM 55.4 °F 50.0 °F 82% 29.91 in 10.0 mi SSE 12.7 mph - N/A   Mostly Cloudy
7:15 AM 55.4 °F 50.0 °F 82% 29.91 in 10.0 mi SSE 11.5 mph - N/A   Mostly Cloudy
7:35 AM 55.4 °F 50.0 °F 82% 29.91 in 10.0 mi SSE 11.5 mph - N/A   Mostly Cloudy
7:55 AM 55.4 °F 50.0 °F 82% 29.91 in 10.0 mi SSE 12.7 mph - N/A   Overcast
8:15 AM 55.4 °F 50.0 °F 82% 29.91 in 10.0 mi SSE 12.7 mph - N/A   Overcast
8:35 AM 55.4 °F 50.0 °F 82% 29.91 in 10.0 mi SSE 11.5 mph - N/A   Mostly Cloudy
8:55 AM 55.4 °F 50.0 °F 82% 29.91 in 10.0 mi SSE 12.7 mph - N/A   Overcast
9:15 AM 57.2 °F 50.0 °F 77% 29.91 in 10.0 mi South 11.5 mph - N/A   Overcast
9:35 AM 55.4 °F 51.8 °F 88% 29.91 in 7.0 mi South 9.2 mph - N/A   Overcast
9:55 AM 55.4 °F 53.6 °F 94% 29.91 in 10.0 mi South 12.7 mph - N/A   Overcast
10:15 AM 55.4 °F 53.6 °F 94% 29.91 in 2.0 mi South 11.5 mph - 0.03 in   Overcast
10:35 AM 55.4 °F 53.6 °F 94% 29.91 in 2.5 mi South 10.4 mph - 0.09 in   Overcast
10:55 AM 57.2 °F 53.6 °F 88% 29.91 in 7.0 mi South 11.5 mph - 0.11 in   Overcast
11:15 AM 57.2 °F 55.4 °F 94% 29.91 in 7.0 mi South 13.8 mph - 0.01 in   Overcast
11:35 AM 59.0 °F 55.4 °F 88% 29.90 in 10.0 mi South 13.8 mph - 0.01 in   Overcast
11:55 AM 59.0 °F 55.4 °F 88% 29.90 in 10.0 mi South 13.8 mph - 0.01 in   Overcast
12:15 PM 59.0 °F 55.4 °F 88% 29.90 in 10.0 mi South 13.8 mph 19.6 mph N/A   Overcast
12:35 PM 59.0 °F 55.4 °F 88% 29.88 in 10.0 mi South 15.0 mph 21.9 mph N/A   Overcast
12:55 PM 60.8 °F 55.4 °F 82% 29.87 in 10.0 mi South 16.1 mph - N/A   Mostly Cloudy
1:15 PM 62.6 °F 55.4 °F 77% 29.86 in 10.0 mi South 15.0 mph - N/A   Mostly Cloudy
1:35 PM 62.6 °F 55.4 °F 77% 29.85 in 10.0 mi SSE 16.1 mph 20.7 mph N/A   Mostly Cloudy
1:55 PM 62.6 °F 55.4 °F 77% 29.84 in 10.0 mi South 18.4 mph 24.2 mph N/A   Mostly Cloudy
2:15 PM 64.4 °F 51.8 °F 64% 29.83 in 10.0 mi South 28.8 mph 33.4 mph N/A   Mostly Cloudy
2:35 PM 64.4 °F 51.8 °F 64% 29.83 in 10.0 mi South 19.6 mph 26.5 mph N/A   Scattered Clouds
2:55 PM 64.4 °F 50.0 °F 59% 29.82 in 10.0 mi South 23.0 mph 29.9 mph N/A   Scattered Clouds
3:15 PM 62.6 °F 50.0 °F 63% 29.82 in 10.0 mi South 21.9 mph 28.8 mph N/A   Mostly Cloudy
3:35 PM 62.6 °F 50.0 °F 63% 29.82 in 10.0 mi South 18.4 mph 27.6 mph N/A   Overcast
4:15 PM 62.6 °F 50.0 °F 63% 29.82 in 10.0 mi South 17.3 mph 21.9 mph N/A   Overcast
4:35 PM 62.6 °F 50.0 °F 63% 29.82 in 10.0 mi South 20.7 mph 26.5 mph N/A   Overcast
4:55 PM 62.6 °F 48.2 °F 59% 29.81 in 10.0 mi South 18.4 mph - N/A   Mostly Cloudy
5:15 PM 62.6 °F 50.0 °F 63% 29.81 in 10.0 mi South 16.1 mph - N/A   Scattered Clouds
5:35 PM 62.6 °F 50.0 °F 63% 29.81 in 10.0 mi South 12.7 mph - N/A   Scattered Clouds
5:55 PM 60.8 °F 50.0 °F 68% 29.81 in 10.0 mi South 15.0 mph - N/A   Clear
6:15 PM 60.8 °F 50.0 °F 68% 29.81 in 10.0 mi SSW 9.2 mph - N/A   Clear
6:35 PM 59.0 °F 48.2 °F 67% 29.81 in 10.0 mi SSW 9.2 mph - N/A   Clear
6:55 PM 57.2 °F 48.2 °F 72% 29.82 in 10.0 mi SSW 8.1 mph - N/A   Clear
7:15 PM 55.4 °F 48.2 °F 77% 29.82 in 10.0 mi South 8.1 mph - N/A   Clear
7:35 PM 53.6 °F 48.2 °F 82% 29.82 in 10.0 mi South 5.8 mph - N/A   Clear
7:55 PM 53.6 °F 48.2 °F 82% 29.82 in 10.0 mi SSE 4.6 mph - N/A   Clear
8:35 PM 53.6 °F 46.4 °F 77% 29.81 in 10.0 mi SE 4.6 mph - N/A   Clear
8:55 PM 53.6 °F 46.4 °F 77% 29.81 in 10.0 mi SE 6.9 mph - N/A   Clear
9:15 PM 53.6 °F 46.4 °F 77% 29.80 in 10.0 mi SSE 9.2 mph - N/A   Clear
9:35 PM 53.6 °F 46.4 °F 77% 29.80 in 10.0 mi SE 8.1 mph - N/A   Clear
9:55 PM 53.6 °F 46.4 °F 77% 29.80 in 10.0 mi SE 9.2 mph - N/A   Clear
10:15 PM 53.6 °F 46.4 °F 77% 29.79 in 10.0 mi SE 10.4 mph - N/A   Clear
10:35 PM 51.8 °F 46.4 °F 82% 29.79 in 10.0 mi SE 10.4 mph - N/A   Clear
10:55 PM 51.8 °F 46.4 °F 82% 29.78 in 10.0 mi SE 10.4 mph - N/A   Clear
11:15 PM 51.8 °F 46.4 °F 82% 29.77 in 10.0 mi SE 10.4 mph - N/A   Clear
11:35 PM 51.8 °F 46.4 °F 82% 29.77 in 10.0 mi SSE 10.4 mph - N/A   Clear
11:55 PM 51.8 °F 46.4 °F 82% 29.77 in 10.0 mi SSE 10.4 mph - N/A   Clear